www.pogodaiklimat.ru

Погода и климат >> Архив погоды >> Индонезия >> Коконао


ПОГОДА в Коконао

  • Прогноз погоды в Коконао
  • Монитор погоды в Коконао

АРХИВ ПОГОДЫ в Коконао

Время (UTC), дата Ветер
(напр.,м/с)
 
Видим.   Явления Облачность Т
(С)
Тd
(С)
f
(%)
Тe
(С)
Тes
(С)
Комфортность P
(гПа)
Po
(гПа)
Тmin
(С)
Tmax
(С)
R
(мм)
R24
(мм)
S
(см)
21 16.08 штиль 0 2500 м слаб. дождь 10/10 300 м
[Sc]
+23.6 +23.4 99 +32 +32 очень
душно
1014.5 1009.7 7
00 17.08 СЗ 3 7000 м слаб. дождь 10/6 300 м
[Sc As op]
+22.8 +22.8 100 +31 +32 очень
душно
1015.9 1011.1 +22.8 22
03 17.08 штиль 0 10 км {дождь} 9/3 540 м
[Sc Ac trans Ci sp]
+25.4 +22.9 86 +34 +45 очень
душно
1013.6 1008.7 0.5
06 17.08 В 2 10 км 9/5 450 м
[Cu Sc Ac trans Ci sp]
+26.5 +23.0 81 +35 +38 очень
душно
1011.2 1006.5
09 17.08 штиль 0 10 км 9/5 540 м
[Sc Ac trans Ci sp]
+25.9 +23.1 85 +35 +35 очень
душно
1012.8 1008.0
12 17.08 штиль 0 5000 м 10/5 500 м
[Sc Ac trans]
+24.2 +22.8 92 +32 +32 очень
душно
1014.5 1009.7 +27.0
15 17.08 штиль 0 5000 м 10/5 500 м
[Sc Ac trans]
+23.6 +22.8 95 +31 +31 очень
душно
1014.7 1009.9
18 17.08 штиль 0 4000 м слаб. ливневой дождь, в посл. час гроза 10/6 420 м
[Cb cap Ac trans]
+23.5 +22.7 95 +31 +31 очень
душно
1013.4 1008.6 0.5
21 17.08 штиль 0 6000 м слаб. дождь 10/8 500 м
[Sc As op]
+23.2 +22.5 96 +32 +32 очень
душно
1014.0 1009.2 10
00 18.08 штиль 0 10 км {дождь} 10/8 360 м
[Cb cap As trans]
+25.2 +23.1 88 +34 +35 очень
душно
1016.0 1011.2 +22.8 1
03 18.08 штиль 0 8000 м слаб. дождь 10/6 450 м
[Sc As trans]
+26.5 +23.8 85 +36 +41 очень
душно
1014.0 1009.2 0.5
06 18.08 штиль 0 10 км {дождь} 9/5 480 м
[Cu hum Ac trans Ci sp]
+27.8 +24.0 80 +39 +42 очень
душно
1010.9 1006.1 0.1
09 18.08 штиль 0 10 км 9/4 480 м
[Sc Ac trans Ci sp]
+27.2 +25.0 88 +39 +39 очень
душно
1011.2 1006.4
12 18.08 штиль 0 5000 м 10/6 400 м
[Sc Ac As]
+25.4 +24.4 94 +35 +35 очень
душно
1013.3 1008.5 +28.8
15 18.08 штиль 0 4000 м 10/6 360 м
[Sc Ac As]
+25.0 +24.2 95 +34 +34 очень
душно
1013.2 1008.4
18 18.08 штиль 0 5000 м 10/6 360 м
[Sc Ac As]
+24.6 +23.9 96 +34 +34 очень
душно
1011.8 1007.0
21 18.08 штиль 0 6000 м {туман} 9/5 420 м
[Sc Ac As Ci sp]
+24.2 +23.5 96 +33 +33 очень
душно
1012.2 1007.4
00 19.08 Ю 2 6000 м мгла 10/9 400 м
[Sc Ac trans]
+25.5 +24.0 91 +35 +35 очень
душно
1014.4 1009.6 +23.8 0.6
03 19.08 ЮВ 5 6000 м слаб. морось {дождь} 9/8 330 м
[Cu hum Ac trans Ci sp]
+27.8 +24.3 81 +39 +40 очень
душно
1012.3 1007.5 0.0
06 19.08 Ю 5 5000 м в посл. час дождь 9/8 330 м
[Cu Sc Ac trans Ci sp]
+28.4 +24.5 79 +40 +41 очень
душно
1009.7 1004.9 0.3
09 19.08 Ю 2 7000 м {дождь} 10/8 400 м
[Sc Ac trans]
+25.1 +24.1 94 +35 +35 очень
душно
1011.9 1007.1 1
12 19.08 штиль 0 5000 м мгла {дождь} 10/6 420 м
[Cu med, cong As op]
+24.2 +23.5 96 +33 +33 очень
душно
1014.0 1009.2 +29.2 0.5
15 19.08 штиль 0 5000 м мгла 10/6 400 м
[Cu med, cong As op]
+24.0 +23.3 96 +32 +32 очень
душно
1014.8 1010.0
18 19.08 штиль 0 5000 м мгла {дождь} 10/4 450 м
[Sc Ac trans]
+23.9 +23.3 96 +32 +32 очень
душно
1013.5 1008.7 0.5
21 19.08 штиль 0 8000 м {дождь} 10/3 480 м
[Sc As trans]
+22.8 +21.9 95 +31 +31 очень
душно
1014.4 1009.6
00 20.08 ЮВ 3 10 км 5/4 480 м
[Cu hum Ac trans Ci sp]
+27.1 +22.9 78 +36 +41 очень
душно
1015.6 1010.8 +22.5 6
03 20.08 ЮВ 4 10 км 5/4 480 м
[Cu hum Ac trans Ci sp]
+29.8 +20.7 58 +37 +45 очень
душно
1013.5 1008.7
06 20.08 ЮВ 4 10 км 5/5 500 м
[Cu hum Ac trans Ci sp]
+31.0 +19.4 50 +37 +40 очень
душно
1011.0 1006.2
09 20.08 Ю 3 10 км 8/5 500 м
[Cu hum Ac trans Ci sp]
+26.0 +21.0 74 +33 +33 очень
душно
1012.4 1007.6
12 20.08 штиль 0 8000 м 8/3 540 м
[Sc Ac trans Ci sp]
+24.2 +21.5 85 +31 +31 очень
душно
1014.8 1010.0 +31.2
15 20.08 штиль 0 6000 м 9/3 480 м
[Cu hum Ac trans Ci sp]
+23.9 +22.2 90 +31 +31 очень
душно
1014.3 1009.5
18 20.08 штиль 0 6000 м 8/3 480 м
[Cu hum Ac trans Ci sp]
+22.7 +21.5 93 +30 +30 очень
душно
1012.7 1007.9
21 20.08 штиль 0 3000 м местами туман поземный 9/4 480 м
[Sc Ac trans Cs]
+21.8 +20.9 95 +28 +28 душно 1013.9 1009.1
00 21.08 В 2 8000 м 8/6 420 м
[Cu hum Ac trans Ci sp]
+25.0 +21.9 83 +32 +36 очень
душно
1015.0 1010.2 +21.4
03 21.08 ЮВ 2 8000 м 9/6 450 м
[Cu hum Ac trans Ci sp]
+26.6 +21.5 74 +34 +40 очень
душно
1012.6 1007.8
06 21.08 ЮВ 2 8000 м 9/6 450 м
[Cu hum Ac trans Ci sp]
+26.6 +21.5 74 +34 +37 очень
душно
1012.6 1007.8
09 21.08 Ю 3 7000 м 10/6 420 м
[Cu hum Ac As]
+25.8 +22.3 81 +34 +34 очень
душно
1011.6 1006.8
12 21.08 штиль 0 6000 м 10/6 420 м
[Sc Ac As]
+24.6 +22.1 86 +32 +32 очень
душно
1014.4 1009.6 +28.0
15 21.08 штиль 0 6000 м 10/6 420 м
[Sc Ac As]
+23.9 +22.5 92 +31 +31 очень
душно
1014.3 1009.5
18 21.08 штиль 0 6000 м 10/6 420 м
[Sc Ac As]
+23.5 +22.4 94 +31 +31 очень
душно
1013.4 1008.6
21 21.08 штиль 0 6000 м 8/5 450 м
[Sc Ac As Ci sp]
+23.0 +22.0 94 +31 +31 очень
душно
1014.3 1009.5
00 22.08 В 3 6000 м 10/9 300 м
[Cu Sc Ac trans]
+25.4 +22.9 86 +34 +34 очень
душно
1015.4 1010.5 +21.8
03 22.08 ЮВ 3 8000 м 9/6 360 м
[Cu Sc Ac trans Ci sp]
+28.0 +22.1 70 +36 +41 очень
душно
1013.2 1008.4
06 22.08 Ю 4 8000 м 8/5 480 м
[Cu med, cong Ac trans Ci sp]
+27.6 +23.8 80 +38 +40 очень
душно
1010.8 1006.0
09 22.08 ЮЗ 2 4000 м слаб. ливневой дождь 9/8 450 м
[Sc Ac trans Ci sp]
+24.7 +23.7 94 +34 +34 очень
душно
1012.8 1008.1 0.6
12 22.08 штиль 0 4000 м слаб. дождь 10/6 420 м
[Sc As op]
+24.2 +23.5 96 +33 +33 очень
душно
1015.3 1010.5 +29.4 2
15 22.08 штиль 0 4000 м слаб. дождь 10/8 420 м
[Sc As op]
+24.0 +23.4 96 +32 +32 очень
душно
1015.0 1010.2 4
18 22.08 З 2 4000 м в посл. час дождь 10/6 420 м
[Sc As op]
+23.4 +22.8 96 +33 +33 очень
душно
1014.1 1009.3 18
21 22.08 СЗ 1 3000 м слаб. дождь 10/8 420 м
[Sc As op]
+23.0 +22.9 99 +32 +32 очень
душно
1015.0 1010.2 12
00 23.08 ЮВ 2 2000 м дождь 10/10 300 м
[Sc diur, vesp]
+22.6 +22.5 99 +31 +31 очень
душно
1016.5 1011.7 +22.8 19
03 23.08 ЮВ 4 7000 м в посл. час дождь 9/5 400 м
[Cu Sc Ac trans Ci sp]
+25.2 +23.8 92 +34 +39 очень
душно
1014.4 1009.6 13
06 23.08 Ю 4 8000 м 9/5 400 м
[Cu med, cong Ac trans Ci sp]
+28.2 +24.1 78 +39 +41 очень
душно
1011.6 1006.9 13
09 23.08 Ю 3 8000 м 9/8 400 м
[Sc diur, vesp Ac trans Ci sp]
+25.0 +23.1 89 +33 +33 очень
душно
1012.9 1008.1
12 23.08 штиль 0 5000 м слаб. дождь 10/6 360 м
[Sc Ac As]
+24.0 +23.3 96 +32 +32 очень
душно
1015.3 1010.5 +28.4 2
15 23.08 штиль 0 4000 м слаб. дождь 10/6 360 м
[Sc As op]
+23.6 +23.0 96 +31 +31 очень
душно
1014.9 1010.1 3
18 23.08 штиль 0 4000 м слаб. дождь 10/6 360 м
[Sc As op]
+23.6 +23.0 96 +31 +31 очень
душно
1014.2 1009.4 0.5

 

Местоположение метеостанции Коконао (Индонезия): широта -5.00 долгота 137.45 высота над уровнем моря 3 м.

В архиве по умолчанию представлена погода в Коконао за последнюю неделю. Архивные данные за месяц целиком и за предыдущие месяцы, начиная с января 2011 года, Вы можете получить, выбрав интересующий диапазон дат из раскрывающегося списка и нажав кнопку "Ввод!".


*Определитесь, кто Вы:
робот инопланетянин человек

Внимание! Время в таблицах - всемирное. Для получения местного времени необходимо прибавить поправку, которая равна 9 ч.

Смотрите также архив погоды в соседних городах и на ближайших метеорологических станциях:

Погода в Энаротали (Индонезия) (170 км)
Погода в Вамене (Индонезия) (196 км)
Погода в Набире (Индонезия) (285 км)
Погода в Танах Мерах (Индонезия) (338 км)
Погода в Серуи (Индонезия) (374 км)
Погода в Сарми (Индонезия) (379 км)
Погода в Сентани (Индонезия) (434 км)
Погода в Каимана (Индонезия) (436 км)
Погода в Биаке (Индонезия) (450 км)
Погода в Джаяпуре (Индонезия) (450 км)

Пояснения к столбцам:

Ветер - указаны скорость ветра в м/с - средняя за 10 мин, порывы в срок и между сроками (в фигурных скобках) и направление, откуда дует ветер: С - северный, СВ - северо-восточный, В - восточный, ЮВ - юго-восточный, Ю - южный, ЮЗ - юго-западный, З - западный, СЗ - северо-западный.
Видимость - горизонтальная дальность видимости в метрах или километрах. При видимости от 1 до 10 км при отсутствии осадков обычно наблюдается дымка, при ухудшении видимости до 1 км и менее - туман. В сухую погоду видимость может ухудшаться дымом, пылью или мглою.
Явления - указаны атмосферные явления, наблюдавшиеся в срок или в последний час перед сроком; фигурными скобками обозначены явления, наблюдавшиеся между сроками (за 1-3 часа до срока); квадратными скобками обозначены град или гололедные отложения с указанием их диаметра в мм.
Облачность - указаны через наклонную черту общая и нижняя облачность в баллах и высота нижней границы облаков в метрах; квадратными скобками обозначены формы облаков: Ci - перистые, Cs - перисто-слоистые, Cc - перисто-кучевые, Ac - высококучевые, As - высокослоистые, Sc - слоисто-кучевые, Ns - слоисто-дождевые, Cu - кучевые, Cb - кучево-дождевые. Подробнее классификацию облаков см. в Атласе облаков (PDF).
T - Температура воздуха - температура, измеренная на высоте 2 м над землей.
Td - Температура точки росы - температура, при понижении до которой содержащийся в воздухе водяной пар достигнет насыщения.
f - Относительная влажность воздуха - влажноcть воздуха, измеренная на высоте 2 м над землей.
Te - Эффективная температура - температура, которую ощущает одетый по сезону человек в тени. Характеристика душности погоды. При расчете учитывается влияние влажности воздуха и скорости ветра на теплоощущения человека.
Tes - Эффективная температура на солнце - температура, которую ощущает человек, с поправкой на солнечный нагрев. Характеристика знойности погоды. Зависит от высоты солнца над горизонтом, облачности и скорости ветра. Ночью, в пасмурную погоду, а также при ветре 12 м/с и более поправка равна нулю.
P - Атмосферное давление - приведенное к уровню моря атмосферное давление.
Po - Атмосферное давление - измеренное на уровне метеостанции атмосферное давление.
Tmin - Минимальная температура - минимум температуры воздуха на высоте 2 м над землей.
Tmax - Максимальная температура - максимум температуры воздуха на высоте 2 м над землей.
R - Количество осадков - Количество выпавших осадков за период времени, мм. При наведении курсора мыши на число - период времени, за который выпало указанное количество осадков.
R24 - Количество осадков - Количество выпавших осадков за 24 часа, мм.
S - Снежный покров - Высота снежного покрова, см. При наведении курсора мыши на число - состояние снежного покрова и степень покрытия местности в баллах.